カタログに戻る

STARLINK-3998

運用中通信VLEO
NORAD 52610·PAYLOAD·🇺🇸 United States

打ち上げ May 14, 2022 から Cape Canaveral Space Force Station

Loading…

次のパス (今後24時間)

TLE

最新Source: CelesTrak SupGP

元期: Sep 15, 2026, 02:04 UTC

1 52610C 22052N   26258.08659722  .00035253  00000+0  10088-2 0  2581
2 52610  53.1569 141.6389 0001284  82.6162 228.1611 15.35375329    12

AllMySatでSTARLINK-3998をリアルタイム追跡

Download on the App Store